[[{"header":{"parameterUnit":"m.s-1","parameterCategory":1,"la1":30.2991,"la2":30.254,"lo1":-89.0895,"lo2":-89.0444,"dy":0.0017,"dx":0.0017,"nx":28,"ny":28,"refTime":"2024-12-25T09:00:00:Z","depth":0,"parameterNumber":2,"parameterNumberName":"U-component_of_WINDS"},"data":[0,0,0,0,0,0,0,0,0,0,0,0,0,0,0,0,0,0,0,0,0,0,0,0,0,0,0,0,0,0,0,0,0,0,0,0,0,0,0,0,0,0,0,0,0,0,0,0,0,0,0,0,0,0,0,0,0,0,-4.0714,-4.0714,0,-4.0725,-4.0725,-4.0725,-4.0604,-4.06,-4.0597,-4.0594,-4.0606,-4.0609,-4.0612,0,0,0,0,0,0,0,0,0,0,0,0,0,-4.0589,-4.0592,-4.0714,-4.0714,-4.0714,-4.0725,-4.0725,-4.0725,-4.0604,-4.06,-4.0596,-4.0592,-4.0605,-4.0609,-4.0613,0,0,0,0,0,0,0,0,0,0,0,0,0,-4.0626,-4.0593,-4.0714,-4.0655,-4.065,-4.0725,-4.0725,-4.0725,-4.0605,-4.06,-4.0595,-4.0591,-4.0603,-4.0608,-4.0613,-4.0745,0,0,-4.0629,-4.0631,0,0,0,0,0,0,0,0,-4.0624,-4.0631,-4.0664,-4.0659,-4.0654,-4.0658,-4.0685,-4.0732,-4.0606,-4.0622,-4.0594,-4.0588,-4.0627,-4.063,-4.0643,-4.0745,-4.0746,-4.0629,-4.0632,-4.0635,-4.0636,0,0,0,0,0,0,0,-4.0622,-4.063,-4.0718,-4.0664,-4.0658,-4.0628,-4.0628,-4.0693,-4.0653,-4.0621,-4.0612,-4.0615,-4.0623,-4.0638,-4.0642,-4.0746,-4.0629,-4.0634,-4.0637,-4.0639,-4.0955,-4.096,0,0,0,0,0,0,-4.0627,-4.0628,-4.0718,-4.0718,-4.0626,-4.0635,-4.0634,-4.0662,-4.0651,-4.0645,-4.0619,-4.0609,-4.0632,-4.0636,-4.0642,-4.0794,-4.0635,-4.0639,-4.0642,-4.095,-4.0956,-4.0962,0,0,0,0,0,0,-4.0625,-4.0636,-4.0717,-4.0671,-4.0679,-4.0642,-4.0674,-4.0664,-4.0679,-4.065,-4.0642,-4.0642,-4.0628,-4.0635,-4.072,-4.0793,-4.0642,-4.0646,-4.0944,-4.0952,-4.0959,-4.11,0,0,0,0,0,0,-4.0622,-4.0636,-4.0686,-4.0673,-4.0682,-4.0795,-4.0678,-4.0668,-4.0688,-4.0675,-4.0669,-4.0664,-4.0625,-4.0713,-4.0725,-4.0797,-4.065,-4.0937,-4.0947,-4.0957,-4.1089,-4.1112,-4.1132,0,0,0,0,0,-4.0618,-4.0725,-4.0689,-4.07,-4.0743,-4.08,-4.0805,-4.0758,-4.0695,-4.0744,-4.0725,-4.0664,-4.0783,-4.0723,-4.0735,-4.081,-4.0932,-4.0944,-4.0956,-4.1079,-4.1108,-4.1132,0,0,0,0,0,0,-4.0748,-4.0722,-4.0682,-4.0788,-4.0797,-4.0779,-4.084,-4.0789,-4.0816,-4.0803,-4.0743,-4.0743,-4.0838,-4.0832,-4.0765,-4.0936,-4.0847,-4.0862,-4.0936,-4.0963,-4.0984,-4.0983,-4.0655,0,0,0,0,0,-4.0789,-4.0837,-4.0812,-4.0909,-4.0915,-4.0877,-4.09,-4.0863,-4.0869,-4.0872,-4.086,-4.0869,-4.0908,-4.0935,-4.097,-4.1088,-4.1084,-4.1146,-4.1167,-4.1185,-4.1199,-4.126,-4.1286,-4.1002,-4.1001,-4.1001,0,0,-4.0874,-4.0866,-4.09,-4.0935,-4.0937,-4.0987,-4.0881,-4.0939,-4.0976,-4.0881,-4.096,-4.0952,-4.0957,-4.1059,-4.1103,-4.1058,-4.1277,-4.1201,-4.1215,-4.1219,-4.1275,-4.1302,-4.1326,-4.101,-4.1008,-4.1007,0,0,-4.1055,-4.1055,-4.1134,-4.1139,-4.1143,-4.1117,-4.1137,-4.1127,-4.1117,-4.1195,-4.1125,-4.1168,-4.1237,-4.1244,-4.1257,-4.1441,-4.1385,-4.1454,-4.1566,-4.1626,-4.1648,-4.1668,-4.1732,-4.1756,-4.1467,-4.1468,-4.1468,0,-4.1161,-4.1234,-4.1182,-4.1245,-4.1261,-4.1178,-4.1258,-4.1265,-4.1281,-4.1295,-4.1244,-4.1328,-4.1326,-4.1428,-4.1473,-4.1486,-4.1506,-4.1453,-4.1649,-4.1668,-4.1686,-4.1747,-4.1771,-4.1476,-4.1475,-4.1474,-4.1473,0,-4.1363,-4.1415,-4.1479,-4.1496,-4.152,-4.1592,-4.155,-4.1581,-4.1542,-4.1522,-4.1602,-4.1597,-4.1629,-4.165,-4.1613,-4.1747,-4.1718,-4.166,-4.1568,-4.1722,-4.1778,-4.1801,-4.1488,-4.1485,-4.1482,-4.148,0,0,-4.1625,-4.1613,-4.1637,-4.1643,-4.1642,-4.1681,-4.1749,-4.178,-4.1807,-4.1821,-4.1876,-4.1936,-4.1881,-4.1896,-4.1859,-4.1912,-4.2057,-4.1846,-4.1845,-4.1884,-4.2202,-4.2246,-4.2274,-4.202,-4.2024,-4.2028,-4.2201,0,-4.18,-4.1914,-4.1869,-4.1987,-4.2034,-4.1956,-4.2014,-4.202,-4.2003,-4.204,-4.2021,-4.2065,-4.199,-4.1998,-4.2047,-4.2029,-4.2119,-4.2016,-4.207,-4.2072,-4.2069,-4.2303,-4.2349,-4.2513,-4.2223,-4.2227,-4.2229,0,-4.202,-4.2042,-4.2165,-4.2155,-4.2173,-4.2226,-4.225,-4.2288,-4.2293,-4.2276,-4.2293,-4.2244,-4.2309,-4.2219,-4.2308,-4.2238,-4.2258,-4.2252,-4.2257,-4.2259,-4.2159,-4.231,-4.2564,-4.2589,-4.2264,-4.2261,-4.2258,0,-4.2197,-4.2259,-4.2339,-4.2347,-4.2338,-4.2378,-4.2376,-4.2376,-4.2397,-4.2418,-4.2431,-4.2461,-4.2476,-4.25,-4.246,-4.2399,-4.2554,-4.2461,-4.2542,-4.2543,-4.2577,-4.2575,-4.2837,-4.2593,-4.2592,-4.2592,-4.2591,0,-4.2397,-4.2475,-4.2419,-4.2468,-4.2553,-4.2501,-4.2586,-4.2575,-4.2576,-4.2622,-4.2557,-4.2601,-4.2547,-4.2586,-4.2556,-4.2633,-4.2641,-4.2629,-4.262,-4.2635,-4.2636,-4.2645,-4.2633,-4.2598,-4.2597,-4.2596,-4.2595,0,-4.2609,-4.2575,-4.2658,-4.2642,-4.264,-4.2703,-4.269,-4.2735,-4.2713,-4.2772,-4.2783,-4.2749,-4.2792,-4.2755,-4.2797,-4.2776,-4.2879,-4.2854,-4.2877,-4.287,-4.2952,-4.2945,-4.3228,-4.3262,-4.2998,-4.3,-4.3002,0,-4.2738,-4.2796,-4.2787,-4.2812,-4.2814,-4.2857,-4.2878,-4.283,-4.2854,-4.2864,-4.2908,-4.2945,-4.2972,-4.3045,-4.3024,-4.3055,-4.303,-4.3127,-4.3034,-4.3046,-4.303,-4.3026,-4.3031,-4.3146,-4.3149,-4.3151,-4.3153,0,-4.297,-4.295,-4.2983,-4.301,-4.3037,-4.3056,-4.307,-4.3095,-4.3045,-4.3076,-4.3119,-4.314,-4.3182,-4.322,-4.3245,-4.3242,-4.319,-4.3183,-4.3203,-4.3218,-4.3228,-4.3222,-4.2927,-4.3176,-4.3174,-4.3172,-4.3171,-4.317,-4.3143,-4.3191,-4.3191,-4.323,-4.3235,-4.325,-4.3291,-4.3275,-4.3309,-4.3339,-4.3309,-4.3361,-4.3364,-4.3391,-4.3395,-4.3435,-4.3394,-4.3424,-4.3431,-4.3439,-4.345,-4.3223,-4.344,-4.3439,-4.3438,-4.3438,-4.3437,0,-4.3371,-4.3367,-4.3403,-4.3424,-4.3455,-4.3403,-4.3416,-4.3444,-4.3491,-4.3498,-4.3526,-4.3575,-4.3611,-4.3594,-4.3625,-4.366,-4.3637,-4.367,-4.3666,-4.3666,-4.3485,-4.3464,-4.3688,-4.3688,-4.3688,-4.3688,-4.3688,-4.3688,-4.3492,-4.3569,-4.355,-4.3628,-4.3624,-4.3674,-4.3686,-4.3699,-4.3704,-4.3762,-4.3791,-4.3779,-4.3776,-4.3807,-4.3838,-4.3831,-4.3845,-4.3887,-4.3872,-4.3704,-4.3679,-4.3655,-4.3635,-4.3891,-4.3891,-4.4049,-4.4051,-4.4052]},{"header":{"parameterUnit":"m.s-1","parameterCategory":1,"la1":30.2991,"la2":30.254,"lo1":-89.0895,"lo2":-89.0444,"dy":0.0017,"dx":0.0017,"nx":28,"ny":28,"refTime":"2024-12-25T09:00:00:Z","depth":0,"parameterNumber":3,"parameterNumberName":"V-component_of_WINDS"},"data":[0,0,0,0,0,0,0,0,0,0,0,0,0,0,0,0,0,0,0,0,0,0,0,0,0,0,0,0,0,0,0,0,0,0,0,0,0,0,0,0,0,0,0,0,0,0,0,0,0,0,0,0,0,0,0,0,0,0,0.0039,0.0039,0,0.0036,0.0036,0.0036,0.0022,0.0021,0.0021,0.0021,0.0018,0.0019,0.0019,0,0,0,0,0,0,0,0,0,0,0,0,0,0.0034,0.0034,0.0039,0.0039,0.0039,0.0036,0.0036,0.0036,0.0022,0.0021,0.0021,0.0021,0.0018,0.0019,0.0019,0,0,0,0,0,0,0,0,0,0,0,0,0,0.0034,0.0034,0.0039,0.0031,0.0031,0.0036,0.0036,0.0035,0.0022,0.0021,0.0021,0.002,0.0018,0.0018,0.0019,0.0031,0,0,0.002,0.002,0,0,0,0,0,0,0,0,0.0034,0.0034,0.0032,0.0032,0.0031,0.0028,0.0033,0.0034,0.0022,0.0025,0.0021,0.002,0.0022,0.0022,0.0023,0.0031,0.0031,0.002,0.002,0.002,0.002,0,0,0,0,0,0,0,0.0034,0.0034,0.0037,0.0032,0.0032,0.0029,0.0028,0.0033,0.0026,0.0025,0.0024,0.0024,0.0022,0.0022,0.0022,0.0031,0.002,0.002,0.002,0.0021,0.0049,0.005,0,0,0,0,0,0,0.0035,0.0034,0.0038,0.0037,0.0031,0.0029,0.0029,0.003,0.0026,0.0025,0.0024,0.0023,0.0022,0.0022,0.0022,0.0037,0.002,0.0021,0.0021,0.0049,0.005,0.005,0,0,0,0,0,0,0.0035,0.0035,0.0038,0.0036,0.0036,0.003,0.0031,0.003,0.0031,0.0026,0.0025,0.0026,0.0022,0.0022,0.0029,0.0036,0.0021,0.0021,0.0048,0.0049,0.005,0.0065,0,0,0,0,0,0,0.0035,0.0035,0.0039,0.0036,0.0036,0.0044,0.0032,0.003,0.0031,0.003,0.0027,0.0026,0.0021,0.0029,0.0029,0.0037,0.0021,0.0047,0.0049,0.005,0.0064,0.0067,0.0069,0,0,0,0,0,0.0035,0.0044,0.004,0.004,0.0041,0.0044,0.0044,0.0038,0.0032,0.0036,0.0033,0.0026,0.0036,0.0029,0.003,0.0038,0.0047,0.0048,0.0049,0.0063,0.0066,0.0069,0,0,0,0,0,0,0.0049,0.0043,0.0038,0.0047,0.0046,0.0042,0.0047,0.0042,0.0043,0.0042,0.0034,0.0034,0.0042,0.0041,0.0034,0.005,0.004,0.0042,0.005,0.0053,0.0055,0.0056,0.0022,0,0,0,0,0,0.0053,0.0056,0.0051,0.0059,0.0059,0.0053,0.0054,0.005,0.0049,0.0049,0.0046,0.0046,0.0049,0.0051,0.0053,0.0064,0.0064,0.007,0.0072,0.0074,0.0075,0.0082,0.0084,0.0054,0.0054,0.0054,0,0,0.0061,0.0058,0.0061,0.0062,0.006,0.0064,0.0053,0.0057,0.006,0.0049,0.0056,0.0054,0.0054,0.0063,0.0067,0.0062,0.0084,0.0075,0.0077,0.0077,0.0083,0.0086,0.0089,0.0055,0.0055,0.0055,0,0,0.0078,0.0076,0.0083,0.0082,0.0081,0.0077,0.0079,0.0076,0.0075,0.0081,0.0073,0.0077,0.0082,0.0082,0.0083,0.0101,0.0095,0.0102,0.0114,0.012,0.0123,0.0125,0.0132,0.0135,0.0104,0.0104,0.0104,0,0.0089,0.0094,0.0087,0.0092,0.0093,0.0084,0.0091,0.0091,0.009,0.0091,0.0086,0.0092,0.0091,0.0101,0.0105,0.0106,0.0108,0.0102,0.0123,0.0125,0.0127,0.0134,0.0136,0.0104,0.0104,0.0104,0.0104,0,0.0107,0.0111,0.0117,0.0117,0.0118,0.0124,0.0119,0.0122,0.0117,0.0114,0.0122,0.012,0.0122,0.0124,0.012,0.0134,0.0131,0.0124,0.0114,0.0131,0.0137,0.0139,0.0106,0.0105,0.0105,0.0105,0,0,0.0133,0.013,0.0132,0.0132,0.013,0.0133,0.014,0.0142,0.0144,0.0145,0.015,0.0155,0.0149,0.015,0.0146,0.0151,0.0167,0.0144,0.0144,0.0149,0.0182,0.0187,0.019,0.0163,0.0163,0.0164,0.0183,0,0.015,0.016,0.0154,0.0165,0.0169,0.016,0.0166,0.0166,0.0164,0.0167,0.0165,0.0168,0.016,0.0161,0.0166,0.0164,0.0173,0.0162,0.0168,0.0168,0.0169,0.0194,0.0199,0.0217,0.0185,0.0185,0.0186,0,0.0171,0.0172,0.0183,0.0182,0.0183,0.0188,0.019,0.0193,0.0193,0.0191,0.0193,0.0187,0.0194,0.0184,0.0193,0.0186,0.0188,0.0188,0.0188,0.0189,0.0178,0.0195,0.0222,0.0225,0.0189,0.0189,0.0189,0,0.0189,0.0193,0.0201,0.0201,0.0199,0.0203,0.0203,0.0202,0.0204,0.0206,0.0207,0.021,0.0212,0.0214,0.021,0.0203,0.022,0.021,0.0219,0.0219,0.0223,0.0223,0.0251,0.0224,0.0224,0.0224,0.0224,0,0.0208,0.0216,0.0209,0.0214,0.0222,0.0216,0.0225,0.0223,0.0223,0.0228,0.0221,0.0225,0.0219,0.0224,0.022,0.0229,0.0229,0.0228,0.0228,0.0229,0.0229,0.0231,0.0229,0.0225,0.0224,0.0224,0.0224,0,0.023,0.0226,0.0233,0.0231,0.0231,0.0237,0.0236,0.024,0.0238,0.0244,0.0245,0.0241,0.0246,0.0242,0.0246,0.0244,0.0256,0.0253,0.0256,0.0255,0.0264,0.0264,0.0295,0.0299,0.0269,0.0269,0.0269,0,0.0243,0.0248,0.0247,0.0249,0.0249,0.0253,0.0255,0.025,0.0253,0.0254,0.0258,0.0262,0.0265,0.0273,0.0271,0.0275,0.0272,0.0283,0.0273,0.0275,0.0273,0.0273,0.0274,0.0285,0.0285,0.0286,0.0286,0,0.0266,0.0264,0.0267,0.027,0.0272,0.0274,0.0276,0.0278,0.0273,0.0276,0.0281,0.0283,0.0288,0.0293,0.0296,0.0296,0.029,0.0289,0.0292,0.0293,0.0295,0.0295,0.0262,0.0289,0.0288,0.0288,0.0288,0.0288,0.0284,0.0289,0.0289,0.0293,0.0293,0.0295,0.0299,0.0297,0.0301,0.0305,0.0301,0.0307,0.0308,0.0312,0.0312,0.0317,0.0313,0.0316,0.0317,0.0318,0.032,0.0294,0.0318,0.0318,0.0318,0.0318,0.0318,0,0.0307,0.0307,0.0311,0.0313,0.0316,0.0311,0.0312,0.0316,0.0321,0.0322,0.0325,0.0331,0.0336,0.0334,0.0338,0.0342,0.034,0.0344,0.0343,0.0344,0.0323,0.0321,0.0346,0.0346,0.0346,0.0346,0.0346,0.0346,0.032,0.0328,0.0326,0.0335,0.0334,0.034,0.0341,0.0343,0.0344,0.0351,0.0355,0.0354,0.0354,0.0358,0.0362,0.0362,0.0364,0.0368,0.0367,0.0348,0.0345,0.0342,0.034,0.0369,0.0369,0.0387,0.0387,0.0387]}]]